Location: Planegg
(48.1000°N, 11.4170°E)
Time: 06:28:56
(UTC+01:00)

ISS - Visible Passes

Search period start: 19 March 2019 00:00
Search period end: 29 March 2019 00:00
Orbit: 406 x 411 km, 51.6° (Epoch: 19 March)

Date Brightness Start Highest point End Pass type
(mag) Time Alt. Az. Time Alt. Az. Time Alt. Az.
21 Mar -1.7 20:27:46 10° SW 20:28:51 18° SSW 20:28:51 18° SSW visible
22 Mar -2.6 19:37:13 10° SSW 19:39:57 24° SE 19:40:43 22° ESE visible
22 Mar -0.9 21:12:59 10° WSW 21:13:29 14° WSW 21:13:29 14° WSW visible
23 Mar -3.9 20:21:54 10° WSW 20:25:08 76° S 20:25:08 76° S visible
24 Mar -3.5 19:30:59 10° SW 19:34:10 49° SSE 19:36:34 16° ENE visible
24 Mar -1.8 21:07:32 10° W 21:09:19 28° WNW 21:09:19 28° WNW visible
25 Mar -3.5 20:16:19 10° W 20:19:36 65° NNW 20:20:37 39° NE visible
25 Mar -0.3 21:53:18 10° WNW 21:53:22 10° WNW 21:53:22 10° WNW visible
26 Mar -3.8 19:25:10 10° WSW 19:28:29 89° NNW 19:31:46 10° ENE visible
26 Mar -2.3 21:02:05 10° WNW 21:04:31 36° NW 21:04:31 36° NW visible
27 Mar -3.0 20:10:50 10° W 20:14:03 47° N 20:15:34 26° NE visible
27 Mar -0.6 21:47:44 10° WNW 21:48:19 14° WNW 21:48:19 14° WNW visible
28 Mar -3.3 19:19:35 10° W 19:22:50 57° NNW 19:26:07 10° ENE visible
28 Mar -2.6 20:56:33 10° WNW 20:59:17 41° NNW 20:59:17 41° NNW visible
